Location: Im Fang
(46.6019°N, 7.2397°E)
Time: 03:49:46
(UTC+00:00)

Envisat - Pass Details

Date: 08 March 2021
Orbit: 764 x 766 km, 98.1° (Epoch: 18 April)

Event Time Altitude Azimuth Distance (km) Brightness Sun altitude
Rises 05:11:47 0° 14° (NNE) 3,245 6.5 -8.6°
Reaches altitude 10° 05:14:06 10° 16° (NNE) 2,314 5.7 -8.2°
Maximum altitude 05:19:13 78° 103° (ESE) 787 3.2 -7.4°
Drops below altitude 10° 05:24:17 10° 190° (S) 2,295 5.4 -6.5°
Sets 05:26:34 0° 192° (SSW) 3,216 6.1 -6.1°
